When you browse on this site, cookies collect data to enhance your experience and personalize the content and advertising you see.
Visit our Privacy Policy to learn more. By continuing to use the site, you agree to this use of cookies and data.
  • In Austria
  • List of Countries
  • For 7 days
  • Water Temperature
  • Weather Map
  • News
  • Weather Widgets
  • user-avatar
    Login

    Hourly Weather Ansfelden

    Today, 23 September, Monday

    Time Temperature Precipitation Wind Pressure Humidity
    00:00 +14°C° 0 mm 1 mps 733 mmHg 77%
    01:00 +12°C° 0 mm 0 mps 733 mmHg 77%
    02:00 +12°C° 0 mm 0 mps 733 mmHg 78%
    03:00 +12°C° 0 mm 0 mps 733 mmHg 78%
    04:00 +12°C° 0 mm 0 mps 733 mmHg 79%
    05:00 +12°C° 0 mm 0 mps 733 mmHg 80%
    06:00 +13°C° 0 mm 1 mps 733 mmHg 81%
    07:00 +14°C° 0 mm 1 mps 734 mmHg 82%
    08:00 +15°C° 0 mm 2 mps 734 mmHg 82%
    09:00 +16°C° 0 mm 2 mps 734 mmHg 82%
    10:00 +17°C° 0 mm 3 mps 734 mmHg 83%
    11:00 +15°C° 0.2 mm 4 mps 734 mmHg 85%
    12:00 +15°C° 0.2 mm 4 mps 735 mmHg 87%
    13:00 +15°C° 0.2 mm 4 mps 735 mmHg 90%
    14:00 +14°C° 0.7 mm 5 mps 735 mmHg 91%
    15:00 +14°C° 0.7 mm 5 mps 735 mmHg 93%
    16:00 +13°C° 0.7 mm 5 mps 735 mmHg 94%
    17:00 +13°C° 0.4 mm 4 mps 736 mmHg 94%
    18:00 +13°C° 0.4 mm 4 mps 736 mmHg 94%
    19:00 +13°C° 0.4 mm 3 mps 736 mmHg 94%
    20:00 +13°C° 0.3 mm 3 mps 737 mmHg 94%
    21:00 +12°C° 0.3 mm 3 mps 737 mmHg 94%
    22:00 +13°C° 0.3 mm 2 mps 737 mmHg 94%
    23:00 +13°C° 0.2 mm 2 mps 737 mmHg 94%

    Tomorrow, 24 September, Tuesday

    Time Temperature Precipitation Wind Pressure Humidity
    00:00 +13°C° 0.2 mm 2 mps 737 mmHg 94%
    01:00 +13°C° 0.2 mm 2 mps 737 mmHg 94%
    02:00 +13°C° 0.1 mm 1 mps 737 mmHg 94%
    03:00 +13°C° 0.1 mm 1 mps 736 mmHg 94%
    04:00 +13°C° 0.1 mm 1 mps 736 mmHg 94%
    05:00 +13°C° 0 mm 1 mps 736 mmHg 93%
    06:00 +13°C° 0 mm 1 mps 736 mmHg 93%
    07:00 +13°C° 0 mm 1 mps 736 mmHg 93%
    08:00 +14°C° 0 mm 1 mps 736 mmHg 87%
    09:00 +16°C° 0 mm 1 mps 736 mmHg 82%
    10:00 +18°C° 0 mm 1 mps 736 mmHg 77%
    11:00 +19°C° 0 mm 1 mps 735 mmHg 71%
    12:00 +20°C° 0 mm 1 mps 735 mmHg 65%
    13:00 +22°C° 0 mm 1 mps 734 mmHg 59%
    14:00 +21°C° 0 mm 1 mps 734 mmHg 61%
    15:00 +21°C° 0 mm 1 mps 733 mmHg 62%
    16:00 +21°C° 0 mm 1 mps 733 mmHg 63%
    17:00 +19°C° 0 mm 1 mps 733 mmHg 70%
    18:00 +16°C° 0 mm 1 mps 733 mmHg 76%
    19:00 +15°C° 0 mm 1 mps 733 mmHg 83%
    20:00 +14°C° 0 mm 1 mps 733 mmHg 84%
    21:00 +14°C° 0 mm 1 mps 733 mmHg 85%
    22:00 +14°C° 0 mm 1 mps 734 mmHg 87%
    23:00 +14°C° 0 mm 1 mps 733 mmHg 85%

    Day after tomorrow, 25 September, Wednesday

    Time Temperature Precipitation Wind Pressure Humidity
    00:00 +13°C° 0 mm 0 mps 733 mmHg 84%
    01:00 +14°C° 0 mm 0 mps 733 mmHg 82%
    02:00 +13°C° 0 mm 0 mps 733 mmHg 83%
    03:00 +13°C° 0 mm 0 mps 733 mmHg 84%
    04:00 +13°C° 0 mm 0 mps 733 mmHg 85%
    05:00 +13°C° 0.1 mm 0 mps 733 mmHg 86%
    06:00 +13°C° 0.1 mm 0 mps 732 mmHg 86%
    07:00 +14°C° 0.1 mm 0 mps 732 mmHg 87%
    08:00 +16°C° 0 mm 1 mps 733 mmHg 83%
    09:00 +17°C° 0 mm 2 mps 733 mmHg 79%
    10:00 +18°C° 0 mm 3 mps 733 mmHg 75%
    11:00 +18°C° 0.2 mm 3 mps 733 mmHg 76%
    12:00 +17°C° 0.2 mm 3 mps 732 mmHg 77%
    13:00 +17°C° 0.2 mm 4 mps 732 mmHg 78%
    14:00 +16°C° 0.3 mm 3 mps 732 mmHg 82%
    15:00 +14°C° 0.3 mm 3 mps 732 mmHg 86%
    16:00 +14°C° 0.3 mm 2 mps 732 mmHg 91%
    17:00 +14°C° 0.9 mm 2 mps 733 mmHg 91%
    18:00 +13°C° 0.9 mm 2 mps 733 mmHg 92%
    19:00 +13°C° 0.9 mm 1 mps 734 mmHg 93%
    20:00 +13°C° 0.1 mm 1 mps 734 mmHg 93%
    21:00 +13°C° 0.1 mm 1 mps 735 mmHg 93%
    22:00 +13°C° 0.1 mm 1 mps 735 mmHg 92%
    23:00 +13°C° 0.3 mm 1 mps 735 mmHg 93%

    26 September, Thursday

    Time Temperature Precipitation Wind Pressure Humidity
    00:00 +13°C° 0.3 mm 1 mps 735 mmHg 93%
    01:00 +12°C° 0.3 mm 1 mps 735 mmHg 93%
    02:00 +12°C° 0.1 mm 1 mps 735 mmHg 93%
    03:00 +12°C° 0.1 mm 1 mps 735 mmHg 92%
    04:00 +12°C° 0.1 mm 1 mps 735 mmHg 92%
    05:00 +12°C° 0 mm 1 mps 735 mmHg 91%
    06:00 +12°C° 0 mm 1 mps 735 mmHg 91%
    07:00 +11°C° 0 mm 0 mps 735 mmHg 90%
    08:00 +13°C° 0 mm 1 mps 736 mmHg 88%
    09:00 +14°C° 0 mm 1 mps 736 mmHg 85%
    10:00 +15°C° 0 mm 2 mps 736 mmHg 82%
    11:00 +15°C° 0.1 mm 2 mps 736 mmHg 83%
    12:00 +15°C° 0.1 mm 2 mps 736 mmHg 84%
    13:00 +15°C° 0.1 mm 2 mps 736 mmHg 84%
    14:00 +15°C° 0.1 mm 2 mps 736 mmHg 86%
    15:00 +15°C° 0.1 mm 2 mps 736 mmHg 88%
    16:00 +14°C° 0.1 mm 1 mps 736 mmHg 90%
    17:00 +14°C° 0.1 mm 1 mps 737 mmHg 91%
    18:00 +14°C° 0.1 mm 1 mps 737 mmHg 92%
    19:00 +14°C° 0.1 mm 1 mps 737 mmHg 92%
    20:00 +14°C° 0 mm 1 mps 737 mmHg 92%
    21:00 +14°C° 0 mm 1 mps 737 mmHg 92%
    22:00 +14°C° 0 mm 1 mps 738 mmHg 92%
    23:00 +12°C° 0 mm 0 mps 738 mmHg 93%

    27 September, Friday

    Time Temperature Precipitation Wind Pressure Humidity
    00:00 +12°C° 0 mm 0 mps 738 mmHg 93%
    01:00 +11°C° 0 mm 0 mps 738 mmHg 93%
    02:00 +11°C° 0 mm 0 mps 737 mmHg 93%
    03:00 +11°C° 0 mm 0 mps 737 mmHg 92%
    04:00 +12°C° 0 mm 0 mps 737 mmHg 92%
    05:00 +12°C° 0 mm 0 mps 737 mmHg 91%
    06:00 +12°C° 0 mm 0 mps 737 mmHg 91%
    07:00 +13°C° 0 mm 0 mps 737 mmHg 90%
    08:00 +16°C° 0 mm 1 mps 737 mmHg 83%
    09:00 +19°C° 0 mm 1 mps 737 mmHg 77%
    10:00 +20°C° 0 mm 1 mps 737 mmHg 70%
    11:00 +22°C° 0 mm 1 mps 737 mmHg 65%
    12:00 +23°C° 0 mm 1 mps 736 mmHg 61%
    13:00 +24°C° 0 mm 1 mps 736 mmHg 57%
    14:00 +24°C° 0 mm 1 mps 736 mmHg 60%
    15:00 +24°C° 0 mm 1 mps 735 mmHg 63%
    16:00 +24°C° 0 mm 1 mps 735 mmHg 66%
    17:00 +22°C° 0.1 mm 1 mps 735 mmHg 72%
    18:00 +20°C° 0.1 mm 1 mps 735 mmHg 78%
    19:00 +18°C° 0.1 mm 1 mps 736 mmHg 83%
    20:00 +18°C° 0.2 mm 1 mps 736 mmHg 85%
    21:00 +18°C° 0.2 mm 1 mps 736 mmHg 86%
    22:00 +16°C° 0.2 mm 1 mps 736 mmHg 87%
    23:00 +16°C° 0.1 mm 1 mps 736 mmHg 88%

    28 September, Saturday

    Time Temperature Precipitation Wind Pressure Humidity
    00:00 +16°C° 0.1 mm 1 mps 736 mmHg 88%
    01:00 +16°C° 0.1 mm 1 mps 736 mmHg 88%
    02:00 +16°C° 0 mm 1 mps 736 mmHg 89%
    03:00 +16°C° 0 mm 1 mps 736 mmHg 90%
    04:00 +15°C° 0 mm 0 mps 736 mmHg 90%
    05:00 +15°C° 1.4 mm 0 mps 736 mmHg 93%
    06:00 +15°C° 1.4 mm 1 mps 735 mmHg 95%
    07:00 +15°C° 1.4 mm 1 mps 735 mmHg 98%
    08:00 +15°C° 1.3 mm 1 mps 736 mmHg 97%
    09:00 +16°C° 1.3 mm 1 mps 736 mmHg 96%
    10:00 +16°C° 1.3 mm 1 mps 736 mmHg 96%
    11:00 +16°C° 0.5 mm 1 mps 736 mmHg 95%
    12:00 +16°C° 0.5 mm 1 mps 736 mmHg 94%
    13:00 +16°C° 0.5 mm 1 mps 736 mmHg 93%
    14:00 +16°C° 0 mm 1 mps 736 mmHg 91%
    15:00 +16°C° 0 mm 2 mps 736 mmHg 89%
    16:00 +16°C° 0 mm 2 mps 735 mmHg 87%
    17:00 +16°C° 0 mm 2 mps 736 mmHg 88%
    18:00 +15°C° 0 mm 1 mps 736 mmHg 89%
    19:00 +15°C° 0 mm 1 mps 736 mmHg 91%
    20:00 +15°C° 0 mm 1 mps 736 mmHg 90%
    21:00 +15°C° 0 mm 1 mps 737 mmHg 88%
    22:00 +15°C° 0 mm 1 mps 737 mmHg 87%
    23:00 +14°C° 0 mm 1 mps 737 mmHg 87%
    Show more